Location: Weatherford
(35.5260°N, 98.7070°W)
Time: 20:33:30
(UTC-06:00)

OPAL - Visible Passes

Search period start: 22 February 2017 00:00
Search period end: 04 March 2017 00:00
Orbit: 744 x 795 km, 100.2° (Epoch: 22 February)

Date Brightness Start Highest point End Pass type
(mag) Time Alt. Az. Time Alt. Az. Time Alt. Az.
22 Feb 7.4 05:17:46 10° NNE 05:22:59 79° WNW 05:25:54 27° SSW visible
23 Feb 8.5 04:42:32 10° NNE 04:47:30 45° E 04:50:20 23° SSE visible
23 Feb 8.8 06:22:17 10° NNW 06:26:00 20° WNW 06:29:40 10° WSW visible
24 Feb 9.9 04:08:09 10° NE 04:11:51 20° E 04:14:47 13° SE visible
24 Feb 7.8 05:45:57 10° N 05:50:51 43° WNW 05:55:06 13° SW visible
25 Feb 7.5 05:10:18 10° NNE 05:15:31 83° ESE 05:19:34 17° SSW visible
26 Feb 8.9 04:35:15 10° NE 04:39:59 35° E 04:44:02 13° SSE visible
26 Feb 8.6 06:14:29 10° NNW 06:18:37 25° WNW 06:22:42 10° WSW visible
27 Feb 10.2 04:01:18 10° ENE 04:04:16 15° E 04:07:12 10° SE visible
27 Feb 7.6 05:38:22 10° N 05:43:25 54° WNW 05:48:23 10° SSW visible
28 Feb 7.8 05:02:52 10° NNE 05:08:02 66° ESE 05:13:04 10° S visible
01 Mar 9.3 04:28:02 10° NE 04:32:27 28° E 04:36:47 10° SSE visible
01 Mar 8.3 06:06:46 10° N 06:11:13 30° WNW 06:15:36 10° SW visible
02 Mar 10.4 03:54:51 10° ENE 03:56:40 12° E 03:58:29 10° ESE visible
02 Mar 7.4 05:30:50 10° N 05:35:58 68° WNW 05:41:00 10° SSW visible
03 Mar 8.2 04:55:29 10° NNE 05:00:31 52° ESE 05:05:27 10° S visible
03 Mar 9.0 06:35:38 10° NNW 06:38:54 17° WNW 06:42:10 10° WSW visible
